Project,Study,Ord_Occ,Event_Num,Cast_ID,Date_Time_UTC,Date_Time_PST,Lat_Dec,Lon_Dec,Sta_ID,Line,Sta,Depth,Pressure,PrQ,Temp1,Temp1Q,Temp2,Temp2Q,TempAve,Salt1,Salt1Q,Salt1_Corr,Salt2,Salt2Q,Salt2_Corr,SaltAve_Corr,Ox1,Ox1Q,Ox1_CruiseCorr,Ox1_StaCorr,Ox2,Ox2Q,Ox2_CruiseCorr,Ox2_StaCorr,OxAve_StaCorr,Ox1uM,Ox1uM_CruiseCorr,Ox1uM_StaCorr,Ox2uM,Ox2uM_CruiseCorr,Ox2uM_StaCorr,OxAveuM_StaCorr,FluorV,FluorQ,EstChl_CruiseCorr,EstChl_StaCorr,ISUSV,ISUSQ,EstNO3_CruiseCorr,EstNO3_StaCorr,SigThetaTS1,SigThetaTS1Q,SigThetaTS2,SigThetaTS2Q,BAT,XMiss,TransQ,pH,pHQ,SPAR,SPARQ,PAR,PARQ,PoT1,PoT2,DynHt,SVA,OxSat1,OxSat2,BTL_Depth,BTL_Temp,SaltB,OxB,OxBuM,Chl-a,Phaeo,NO3,NO2,NH4,PO4,SIL
CalCOFI,2105SH,017,,2105_017d,07-May-2021 20:11:59,07-May-2021 12:11:59,32.08196,-120.64088,090.0 070.0,090.0,070.0,3.000,3.021,,13.6055,,13.6047,,13.6051,33.4473,,33.4485,33.4474,,33.4493,33.4489,5.7844,,6.1154,6.1558,5.8698,,6.1393,6.1526,6.1542,252.015,265.9553,265.9568,255.736,277.3054,265.5004,265.7286,0.0554,,0.1905,0.2988,2.6087,,3.5235,,25.0686,,25.0688,,,,,,,,,,,13.6051,13.6043,0.0011,288.332,97.856,99.299,,,,,,,,,,,,
CalCOFI,2105SH,017,,2105_017d,07-May-2021 20:12:17,07-May-2021 12:12:17,32.08191,-120.64090,090.0 070.0,090.0,070.0,4.000,4.028,,13.5994,,13.6008,,13.6001,33.4476,,33.4488,33.4476,,33.4495,33.4492,5.7855,,6.1166,6.1569,5.8746,,6.1443,6.1575,6.1572,252.059,266.0013,266.0027,255.944,277.3529,265.7139,265.8583,0.0520,,0.1653,0.2819,2.6089,,3.5235,,25.0700,,25.0698,,,,,,,,,,,13.5989,13.6003,0.0106,288.218,97.861,99.373,4,13.637,33.4501,6.192,269.77,0.646,0.157,4.41,0.104,0.22,0.59,3.21
CalCOFI,2105SH,017,,2105_017d,07-May-2021 20:12:19,07-May-2021 12:12:19,32.08190,-120.64090,090.0 070.0,090.0,070.0,5.000,5.035,,13.6007,,13.6022,,13.6015,33.4476,,33.4488,33.4481,,33.4500,33.4494,5.7652,,6.0953,6.1360,5.8660,,6.1354,6.1487,6.1424,251.179,265.0813,265.0840,255.568,276.4025,265.3279,265.2060,0.0498,,0.1490,0.2709,2.6088,,3.5235,,25.0699,,25.0699,,,,,,,,,,,13.6000,13.6015,0.0133,288.263,97.522,99.230,,,,,,,,,,,,
CalCOFI,2105SH,017,,2105_017d,07-May-2021 20:12:19,07-May-2021 12:12:19,32.08190,-120.64090,090.0 070.0,090.0,070.0,6.000,6.042,,13.6054,,13.6074,,13.6064,33.4480,,33.4492,33.4484,,33.4503,33.4498,5.7732,,6.1037,6.1442,5.8687,,6.1382,6.1515,6.1479,251.526,265.4441,265.4463,255.685,276.7773,265.4480,265.4472,0.0483,,0.1379,0.2634,2.6088,,3.5235,,25.0692,,25.0691,,,,,,,,,,,13.6045,13.6066,0.0162,288.355,97.667,99.286,,,,,,,,,,,,
CalCOFI,2105SH,017,,2105_017d,07-May-2021 20:12:20,07-May-2021 12:12:20,32.08190,-120.64090,090.0 070.0,090.0,070.0,7.000,7.049,,13.6088,,13.6083,,13.6086,33.4478,,33.4490,33.4481,,33.4500,33.4495,5.7698,,6.1002,6.1407,5.8705,,6.1401,6.1533,6.1470,251.378,265.2894,265.2918,255.764,276.6174,265.5291,265.4105,0.0518,,0.1638,0.2809,2.6087,,3.5235,,25.0684,,25.0687,,,,,,,,,,,13.6078,13.6074,0.0191,288.457,97.616,99.318,,,,,,,,,,,,
CalCOFI,2105SH,017,,2105_017d,07-May-2021 20:12:21,07-May-2021 12:12:21,32.08190,-120.64090,090.0 070.0,090.0,070.0,8.000,8.056,,13.6055,,13.6072,,13.6064,33.4478,,33.4490,33.4479,,33.4498,33.4494,5.7597,,6.0896,6.1303,5.8713,,6.1409,6.1541,6.1422,250.936,264.8273,264.8304,255.799,276.1401,265.5651,265.1978,0.0523,,0.1675,0.2833,2.6086,,3.5235,,25.0691,,25.0689,,,,,,,,,,,13.6044,13.6060,0.0220,288.419,97.438,99.329,,,,,,,,,,,,
CalCOFI,2105SH,017,,2105_017d,07-May-2021 20:12:22,07-May-2021 12:12:22,32.08190,-120.64090,090.0 070.0,090.0,070.0,9.000,9.063,,13.6038,,13.6036,,13.6037,33.4478,,33.4490,33.4480,,33.4499,33.4495,5.7399,,6.0689,6.1099,5.8669,,6.1363,6.1496,6.1298,250.075,263.9272,263.9315,255.607,275.2102,265.3680,264.6498,0.0520,,0.1653,0.2819,2.6083,,3.5235,,25.0695,,25.0696,,,,,,,,,,,13.6025,13.6023,0.0249,288.414,97.100,99.247,,,,,,,,,,,,
CalCOFI,2105SH,017,,2105_017d,07-May-2021 20:12:24,07-May-2021 12:12:24,32.08190,-120.64090,090.0 070.0,090.0,070.0,10.000,10.070,,13.6045,,13.6059,,13.6052,33.4479,,33.4491,33.4478,,33.4497,33.4494,5.7568,,6.0866,6.1273,5.8695,,6.1390,6.1523,6.1398,250.811,264.6966,264.6999,255.720,276.0051,265.4839,265.0919,0.0588,,0.2155,0.3157,2.6080,,3.5235,,25.0694,,25.0690,,,,,,,,,,,13.6031,13.6045,0.0278,288.447,97.387,99.296,,,,,,,,,,,,
CalCOFI,2105SH,017,,2105_017d,07-May-2021 20:12:24,07-May-2021 12:12:24,32.08190,-120.64090,090.0 070.0,090.0,070.0,11.000,11.077,,13.6029,,13.6045,,13.6037,33.4481,,33.4493,33.4481,,33.4500,33.4497,5.7697,,6.1001,6.1406,5.8703,,6.1399,6.1531,6.1469,251.373,265.2841,265.2866,255.755,276.6120,265.5199,265.4033,0.0573,,0.2045,0.3082,2.6078,,3.5235,,25.0699,,25.0696,,,,,,,,,,,13.6014,13.6030,0.0307,288.425,97.603,99.307,11,13.639,,,265.68,0.760,0.224,4.38,0.103,0.23,0.64,3.02
CalCOFI,2105SH,017,,2105_017d,07-May-2021 20:12:25,07-May-2021 12:12:25,32.08189,-120.64090,090.0 070.0,090.0,070.0,12.000,12.085,,13.6041,,13.6055,,13.6048,33.4475,,33.4487,33.4471,,33.4490,33.4489,5.7796,,6.1104,6.1508,5.8709,,6.1405,6.1537,6.1523,251.805,265.7357,265.7376,255.784,277.0786,265.5497,265.6437,0.0582,,0.2111,0.3127,2.6076,,3.5235,,25.0692,,25.0687,,,,,,,,,,,13.6024,13.6038,0.0336,288.519,97.772,99.320,,,,,,,,,,,,
CalCOFI,2105SH,017,,2105_017d,07-May-2021 20:12:26,07-May-2021 12:12:26,32.08188,-120.64090,090.0 070.0,090.0,070.0,13.000,13.092,,13.5891,,13.5908,,13.5900,33.4485,,33.4497,33.4481,,33.4500,33.4499,5.7940,,6.1255,6.1657,5.8722,,6.1418,6.1550,6.1604,252.430,266.3891,266.3901,255.838,277.7536,265.6051,265.9976,0.0592,,0.2185,0.3177,2.6074,,3.5235,,25.0731,,25.0725,,,,,,,,,,,13.5873,13.5890,0.0365,288.180,97.986,99.312,,,,,,,,,,,,
CalCOFI,2105SH,017,,2105_017d,07-May-2021 20:12:27,07-May-2021 12:12:27,32.08188,-120.64091,090.0 070.0,090.0,070.0,14.000,14.099,,13.5871,,13.5847,,13.5859,33.4484,,33.4496,33.4484,,33.4503,33.4500,5.7864,,6.1175,6.1578,5.8656,,6.1350,6.1483,6.1531,252.098,266.0420,266.0435,255.552,277.3950,265.3115,265.6775,0.0638,,0.2523,0.3406,2.6071,,3.5235,,25.0735,,25.0740,,,,,,,,,,,13.5851,13.5827,0.0394,288.168,97.853,99.189,,,,,,,,,,,,
CalCOFI,2105SH,017,,2105_017d,07-May-2021 20:12:28,07-May-2021 12:12:28,32.08188,-120.64091,090.0 070.0,090.0,070.0,15.000,15.106,,13.5826,,13.5824,,13.5825,33.4487,,33.4499,33.4484,,33.4503,33.4501,5.7849,,6.1159,6.1563,5.8672,,6.1366,6.1499,6.1531,252.033,265.9741,265.9756,255.618,277.3248,265.3792,265.6774,0.0699,,0.2971,0.3709,2.6067,,3.5235,,25.0746,,25.0744,,,,,,,,,,,13.5805,13.5804,0.0423,288.089,97.819,99.210,,,,,,,,,,,,
CalCOFI,2105SH,017,,2105_017d,07-May-2021 20:12:29,07-May-2021 12:12:29,32.08188,-120.64090,090.0 070.0,090.0,070.0,16.000,16.113,,13.5856,,13.5863,,13.5860,33.4484,,33.4496,33.4486,,33.4505,33.4501,5.7839,,6.1149,6.1553,5.8663,,6.1357,6.1490,6.1522,251.991,265.9302,265.9318,255.580,277.2795,265.3402,265.6360,0.0758,,0.3402,0.4003,2.6063,,3.5235,,25.0738,,25.0739,,,,,,,,,,,13.5833,13.5841,0.0452,288.194,97.808,99.203,,,,,,,,,,,,
CalCOFI,2105SH,017,,2105_017d,07-May-2021 20:12:30,07-May-2021 12:12:30,32.08188,-120.64090,090.0 070.0,090.0,070.0,17.000,17.120,,13.5862,,13.5861,,13.5862,33.4486,,33.4498,33.4482,,33.4501,33.4500,5.7681,,6.0984,6.1390,5.8641,,6.1334,6.1468,6.1429,251.302,265.2099,265.2125,255.482,276.5354,265.2396,265.2261,0.0803,,0.3729,0.4227,2.6060,,3.5235,,25.0739,,25.0736,,,,,,,,,,,13.5838,13.5837,0.0481,288.215,97.542,99.164,,,,,,,,,,,,
CalCOFI,2105SH,017,,2105_017d,07-May-2021 20:12:31,07-May-2021 12:12:31,32.08188,-120.64090,090.0 070.0,090.0,070.0,18.000,18.127,,13.5814,,13.5820,,13.5817,33.4488,,33.4500,33.4486,,33.4505,33.4503,5.7745,,6.1051,6.1456,5.8718,,6.1414,6.1546,6.1501,251.580,265.5005,265.5027,255.819,276.8356,265.5856,265.5442,0.0856,,0.4114,0.4491,2.6057,,3.5235,,25.0751,,25.0748,,,,,,,,,,,13.5789,13.5794,0.0510,288.133,97.640,99.287,,,,,,,,,,,,
CalCOFI,2105SH,017,,2105_017d,07-May-2021 20:12:31,07-May-2021 12:12:31,32.08186,-120.64090,090.0 070.0,090.0,070.0,19.000,19.134,,13.5789,,13.5774,,13.5782,33.4490,,33.4502,33.4488,,33.4507,33.4505,5.8019,,6.1337,6.1738,5.8765,,6.1463,6.1594,6.1666,252.775,266.7498,266.7502,256.025,278.1262,265.7971,266.2737,0.0704,,0.3007,0.3734,2.6055,,3.5235,,25.0758,,25.0759,,,,,,,,,,,13.5763,13.5748,0.0539,288.095,98.100,99.358,,,,,,,,,,,,
CalCOFI,2105SH,017,,2105_017d,07-May-2021 20:12:32,07-May-2021 12:12:32,32.08186,-120.64090,090.0 070.0,090.0,070.0,20.000,20.141,,13.5747,,13.5743,,13.5745,33.4491,,33.4503,33.4491,,33.4510,33.4507,5.8121,,6.1444,6.1843,5.8740,,6.1437,6.1568,6.1706,253.216,267.2108,267.2106,255.914,278.6025,265.6831,266.4469,0.1367,,0.7753,0.7033,2.6052,,3.5235,,25.0767,,25.0768,,,,,,,,,,,13.5719,13.5715,0.0568,288.030,98.263,99.309,,,,,,,,,,,,
CalCOFI,2105SH,017,,2105_017d,07-May-2021 20:12:34,07-May-2021 12:12:34,32.08186,-120.64091,090.0 070.0,090.0,070.0,21.000,21.149,,13.5765,,13.5771,,13.5768,33.4489,,33.4501,33.4488,,33.4507,33.4504,5.7849,,6.1159,6.1563,5.8704,,6.1400,6.1532,6.1548,252.035,265.9762,265.9777,255.759,277.3270,265.5240,265.7509,0.2013,,1.2173,1.0248,2.6047,,3.5235,,25.0763,,25.0761,,,,,,,,,,,13.5735,13.5741,0.0597,288.102,97.808,99.254,,,,,,,,,,,,
CalCOFI,2105SH,017,,2105_017d,07-May-2021 20:12:36,07-May-2021 12:12:36,32.08184,-120.64090,090.0 070.0,090.0,070.0,22.000,22.156,,13.5735,,13.5727,,13.5731,33.4490,,33.4502,33.4491,,33.4510,33.4506,5.7552,,6.0849,6.1257,5.8723,,6.1419,6.1551,6.1404,250.737,264.6193,264.6226,255.843,275.9252,265.6102,265.1164,0.0890,,0.4360,0.4660,2.6037,,3.5235,,25.0770,,25.0772,,,,,,,,,,,13.5705,13.5696,0.0626,288.062,97.298,99.278,,,,,,,,,,,,
CalCOFI,2105SH,017,,2105_017d,07-May-2021 20:12:37,07-May-2021 12:12:37,32.08184,-120.64088,090.0 070.0,090.0,070.0,23.000,23.163,,13.5571,,13.5586,,13.5579,33.4509,,33.4521,33.4491,,33.4510,33.4516,5.7946,,6.1261,6.1663,5.8707,,6.1403,6.1535,6.1599,252.454,266.4142,266.4151,255.771,277.7795,265.5363,265.9757,0.1243,,0.6881,0.6416,2.6031,,3.5235,,25.0818,,25.0801,,,,,,,,,,,13.5539,13.5554,0.0655,287.634,97.933,99.221,,,,,,,,,,,,
CalCOFI,2105SH,017,,2105_017d,07-May-2021 20:12:41,07-May-2021 12:12:41,32.08184,-120.64091,090.0 070.0,090.0,070.0,24.000,24.170,,13.5290,,13.5270,,13.5280,33.4522,,33.4534,33.4524,,33.4543,33.4539,5.7687,,6.0990,6.1396,5.8467,,6.1154,6.1291,6.1344,251.324,265.2329,265.2354,254.722,276.5591,264.4593,264.8474,0.1092,,0.5810,0.5665,2.6000,,3.5235,,25.0885,,25.0891,,,,,,,,,,,13.5257,13.5236,0.0687,287.017,97.440,98.754,,,,,,,,,,,,
CalCOFI,2105SH,017,,2105_017d,07-May-2021 20:12:43,07-May-2021 12:12:43,32.08182,-120.64090,090.0 070.0,090.0,070.0,25.000,25.177,,13.4805,,13.4767,,13.4786,33.4663,,33.4675,33.4652,,33.4671,33.4673,5.7406,,6.0696,6.1106,5.8314,,6.0996,6.1135,6.1121,250.094,263.9471,263.9513,254.052,275.2307,263.7715,263.8614,0.1463,,0.8422,0.7511,2.5974,,3.5235,,25.1093,,25.1092,,,,,,,,,,,13.4771,13.4732,0.0717,285.068,96.878,98.403,,,,,,,,,,,,
CalCOFI,2105SH,017,,2105_017d,07-May-2021 20:12:44,07-May-2021 12:12:44,32.08182,-120.64090,090.0 070.0,090.0,070.0,26.000,26.184,,13.3979,,13.3986,,13.3983,33.5089,,33.5101,33.5070,,33.5089,33.5095,5.7076,,6.0351,6.0766,5.8327,,6.1009,6.1148,6.0957,248.647,262.4344,262.4407,254.094,273.6680,263.8146,263.1277,0.1551,,0.9032,0.7949,2.5950,,3.5235,,25.1590,,25.1573,,,,,,,,,,,13.3943,13.3950,0.0745,280.365,96.185,98.292,,,,,,,,,,,,
CalCOFI,2105SH,017,,2105_017d,07-May-2021 20:12:48,07-May-2021 12:12:48,32.08181,-120.64090,090.0 070.0,090.0,070.0,27.000,27.191,,13.3215,,13.3288,,13.3252,33.5349,,33.5361,33.5302,,33.5321,33.5341,5.7292,,6.0577,6.0988,5.8204,,6.0882,6.1023,6.1006,249.579,263.4087,263.4137,253.551,274.6745,263.2571,263.3354,0.1708,,1.0111,0.8730,2.5875,,3.5235,,25.1946,,25.1894,,,,,,,,,,,13.3178,13.3251,0.0773,277.006,96.413,97.959,,,,,,,,,,,,
CalCOFI,2105SH,017,,2105_017d,07-May-2021 20:12:51,07-May-2021 12:12:51,32.08180,-120.64090,090.0 070.0,090.0,070.0,28.000,28.199,,13.2888,,13.2889,,13.2889,33.5464,,33.5476,33.5458,,33.5477,33.5477,5.7314,,6.0600,6.1011,5.8089,,6.0763,6.0906,6.0959,249.671,263.5049,263.5097,253.046,274.7739,262.7386,263.1242,0.1420,,0.8123,0.7297,2.5813,,3.5235,,25.2100,,25.2095,,,,,,,,,,,13.2849,13.2851,0.0801,275.560,96.392,97.695,,,,,,,,,,,,
CalCOFI,2105SH,017,,2105_017d,07-May-2021 20:12:53,07-May-2021 12:12:53,32.08178,-120.64091,090.0 070.0,090.0,070.0,29.000,29.206,,13.2754,,13.2753,,13.2754,33.5546,,33.5558,33.5534,,33.5553,33.5556,5.7061,,6.0335,6.0750,5.8043,,6.0715,6.0859,6.0805,248.564,262.3476,262.3540,252.845,273.5783,262.5322,262.4431,0.1726,,1.0234,0.8820,2.5764,,3.5235,,25.2191,,25.2182,,,,,,,,,,,13.2714,13.2713,0.0829,274.727,95.944,97.595,,,,,,,,,,,,
CalCOFI,2105SH,017,,2105_017d,07-May-2021 20:12:55,07-May-2021 12:12:55,32.08178,-120.64092,090.0 070.0,090.0,070.0,30.000,30.213,,13.2667,,13.2669,,13.2668,33.5550,,33.5562,33.5541,,33.5560,33.5561,5.7061,,6.0335,6.0750,5.7976,,6.0646,6.0791,6.0771,248.567,262.3507,262.3571,252.552,273.5816,262.2314,262.2943,0.1574,,0.9191,0.8064,2.5731,,3.5235,,25.2211,,25.2204,,,,,,,,,,,13.2626,13.2628,0.0856,274.558,95.928,97.466,,,,,,,,,,,,
CalCOFI,2105SH,017,,2105_017d,07-May-2021 20:12:56,07-May-2021 12:12:56,32.08178,-120.64092,090.0 070.0,090.0,070.0,31.000,31.220,,13.2621,,13.2626,,13.2624,33.5542,,33.5554,33.5532,,33.5551,33.5553,5.6877,,6.0143,6.0560,5.7872,,6.0538,6.0685,6.0623,247.765,261.5123,261.5199,252.097,272.7154,261.7643,261.6421,0.1710,,1.0125,0.8740,2.5702,,3.5235,,25.2215,,25.2207,,,,,,,,,,,13.2578,13.2583,0.0884,274.554,95.609,97.282,31,13.205,,,261.28,0.785,0.382,6.03,0.140,0.30,0.73,4.04
CalCOFI,2105SH,017,,2105_017d,07-May-2021 20:12:59,07-May-2021 12:12:59,32.08178,-120.64090,090.0 070.0,090.0,070.0,32.000,32.227,,13.2337,,13.2340,,13.2339,33.5498,,33.5510,33.5481,,33.5500,33.5505,5.6876,,6.0142,6.0559,5.7702,,6.0362,6.0512,6.0536,247.761,261.5081,261.5157,251.357,272.7111,261.0045,261.2601,0.1606,,0.9412,0.8223,2.5656,,3.5235,,25.2238,,25.2225,,,,,,,,,,,13.2293,13.2296,0.0912,274.359,95.550,96.936,,,,,,,,,,,,
CalCOFI,2105SH,017,,2105_017d,07-May-2021 20:13:01,07-May-2021 12:13:01,32.08176,-120.64091,090.0 070.0,090.0,070.0,33.000,33.234,,13.2196,,13.2195,,13.2196,33.5502,,33.5514,33.5499,,33.5518,33.5516,5.6866,,6.0131,6.0549,5.7750,,6.0411,6.0561,6.0555,247.714,261.4590,261.4666,251.566,272.6603,261.2191,261.3429,0.1740,,1.0330,0.8890,2.5606,,3.5235,,25.2270,,25.2268,,,,,,,,,,,13.2150,13.2149,0.0939,274.082,95.504,96.989,,,,,,,,,,,,
CalCOFI,2105SH,017,,2105_017d,07-May-2021 20:13:04,07-May-2021 12:13:04,32.08175,-120.64092,090.0 070.0,090.0,070.0,34.000,34.242,,13.2350,,13.2352,,13.2351,33.5564,,33.5576,33.5562,,33.5581,33.5579,5.6652,,5.9908,6.0328,5.7639,,6.0296,6.0448,6.0388,246.781,260.4837,260.4926,251.082,271.6527,260.7222,260.6074,0.1885,,1.1313,0.9611,2.5560,,3.5235,,25.2287,,25.2285,,,,,,,,,,,13.2304,13.2305,0.0967,273.945,95.179,96.838,,,,,,,,,,,,
CalCOFI,2105SH,017,,2105_017d,07-May-2021 20:13:05,07-May-2021 12:13:05,32.08174,-120.64092,090.0 070.0,090.0,070.0,35.000,35.249,,13.2327,,13.2335,,13.2331,33.5562,,33.5574,33.5562,,33.5581,33.5578,5.6697,,5.9955,6.0375,5.7579,,6.0234,6.0387,6.0381,246.979,260.6906,260.6993,250.820,271.8665,260.4532,260.5763,0.1474,,0.8499,0.7566,2.5545,,3.5235,,25.2291,,25.2289,,,,,,,,,,,13.2278,13.2287,0.0994,273.940,95.251,96.734,,,,,,,,,,,,
CalCOFI,2105SH,017,,2105_017d,07-May-2021 20:13:06,07-May-2021 12:13:06,32.08174,-120.64092,090.0 070.0,090.0,070.0,36.000,36.256,,13.2312,,13.2318,,13.2315,33.5573,,33.5585,33.5571,,33.5590,33.5588,5.6795,,6.0057,6.0476,5.7561,,6.0216,6.0369,6.0423,247.406,261.1370,261.1451,250.741,272.3277,260.3721,260.7586,0.1825,,1.0908,0.9313,2.5531,,3.5235,,25.2303,,25.2299,,,,,,,,,,,13.2263,13.2269,0.1022,273.854,95.413,96.700,,,,,,,,,,,,
CalCOFI,2105SH,017,,2105_017d,07-May-2021 20:13:08,07-May-2021 12:13:08,32.08174,-120.64094,090.0 070.0,090.0,070.0,37.000,37.263,,13.2284,,13.2281,,13.2283,33.5572,,33.5584,33.5568,,33.5587,33.5586,5.6751,,6.0011,6.0430,5.7533,,6.0187,6.0341,6.0386,247.211,260.9332,260.9415,250.620,272.1171,260.2479,260.5947,0.1703,,1.0077,0.8705,2.5501,,3.5235,,25.2308,,25.2305,,,,,,,,,,,13.2233,13.2230,0.1050,273.834,95.333,96.646,,,,,,,,,,,,
CalCOFI,2105SH,017,,2105_017d,07-May-2021 20:13:11,07-May-2021 12:13:11,32.08172,-120.64092,090.0 070.0,090.0,070.0,38.000,38.270,,13.2199,,13.2201,,13.2200,33.5568,,33.5580,33.5564,,33.5583,33.5582,5.6608,,5.9862,6.0283,5.7442,,6.0092,6.0248,6.0266,246.591,260.2850,260.2943,250.221,271.4475,259.8382,260.0663,0.1538,,0.8942,0.7884,2.5461,,3.5235,,25.2322,,25.2318,,,,,,,,,,,13.2146,13.2148,0.1077,273.724,95.077,96.476,,,,,,,,,,,,
CalCOFI,2105SH,017,,2105_017d,07-May-2021 20:13:13,07-May-2021 12:13:13,32.08172,-120.64094,090.0 070.0,090.0,070.0,39.000,39.278,,13.2118,,13.2119,,13.2119,33.5565,,33.5577,33.5559,,33.5578,33.5578,5.6579,,5.9831,6.0253,5.7287,,5.9932,6.0090,6.0172,246.461,260.1491,260.1585,249.547,271.3071,259.1462,259.6524,0.1742,,1.0343,0.8900,2.5438,,3.5235,,25.2336,,25.2331,,,,,,,,,,,13.2064,13.2065,0.1105,273.616,95.011,96.200,,,,,,,,,,,,
CalCOFI,2105SH,017,,2105_017d,07-May-2021 20:13:15,07-May-2021 12:13:15,32.08170,-120.64094,090.0 070.0,090.0,070.0,40.000,40.285,,13.1913,,13.1908,,13.1911,33.5541,,33.5553,33.5530,,33.5549,33.5551,5.6517,,5.9766,6.0189,5.7277,,5.9922,6.0080,6.0135,246.194,259.8700,259.8798,249.502,271.0187,259.1000,259.4899,0.1670,,0.9851,0.8541,2.5397,,3.5235,,25.2359,,25.2351,,,,,,,,,,,13.1859,13.1853,0.1132,273.428,94.866,96.140,,,,,,,,,,,,
CalCOFI,2105SH,017,,2105_017d,07-May-2021 20:13:17,07-May-2021 12:13:17,32.08170,-120.64094,090.0 070.0,090.0,070.0,41.000,41.292,,13.1699,,13.1692,,13.1696,33.5515,,33.5527,33.5506,,33.5525,33.5526,5.6089,,5.9319,5.9748,5.6626,,5.9247,5.9418,5.9583,244.329,257.9203,257.9328,246.668,269.0045,256.1904,257.0616,0.1634,,0.9604,0.8362,2.5323,,3.5235,,25.2381,,25.2376,,,,,,,,,,,13.1643,13.1636,0.1160,273.241,94.105,95.004,,,,,,,,,,,,
CalCOFI,2105SH,017,,2105_017d,07-May-2021 20:13:19,07-May-2021 12:13:19,32.08169,-120.64094,090.0 070.0,090.0,070.0,42.000,42.299,,13.1495,,13.1499,,13.1497,33.5507,,33.5519,33.5489,,33.5508,33.5514,5.5262,,5.8454,5.8895,5.6038,,5.8638,5.8820,5.8858,240.725,254.1527,254.1702,244.104,265.1122,253.5580,253.8641,0.1737,,1.0309,0.8875,2.5265,,3.5235,,25.2416,,25.2401,,,,,,,,,,,13.1437,13.1441,0.1187,272.930,92.678,93.978,,,,,,,,,,,,
CalCOFI,2105SH,017,,2105_017d,07-May-2021 20:13:20,07-May-2021 12:13:20,32.08168,-120.64094,090.0 070.0,090.0,070.0,43.000,43.307,,13.0420,,13.0365,,13.0393,33.5455,,33.5467,33.5325,,33.5344,33.5406,5.5349,,5.8545,5.8984,5.6118,,5.8721,5.8901,5.8943,241.098,254.5426,254.5596,244.451,265.5150,253.9142,254.2369,0.1504,,0.8707,0.7715,2.5207,,3.5235,,25.2590,,25.2500,,,,,,,,,,,13.0361,13.0306,0.1215,271.298,92.614,93.883,,,,,,,,,,,,
CalCOFI,2105SH,017,,2105_017d,07-May-2021 20:13:22,07-May-2021 12:13:22,32.08168,-120.64095,090.0 070.0,090.0,070.0,44.000,44.314,,12.8656,,12.8660,,12.8658,33.5299,,33.5311,33.5219,,33.5238,33.5275,5.4924,,5.8101,5.8546,5.5478,,5.8058,5.8250,5.8398,239.244,252.6045,252.6241,241.655,263.5127,251.0436,251.8339,0.1386,,0.7886,0.7128,2.5048,,3.5235,,25.2817,,25.2755,,,,,,,,,,,12.8596,12.8601,0.1242,269.147,91.562,92.481,,,,,,,,,,,,
CalCOFI,2105SH,017,,2105_017d,07-May-2021 20:13:25,07-May-2021 12:13:25,32.08166,-120.64094,090.0 070.0,090.0,070.0,45.000,45.321,,12.6303,,12.6271,,12.6287,33.5295,,33.5307,33.5213,,33.5232,33.5270,5.3949,,5.7081,5.7540,5.4612,,5.7161,5.7369,5.7455,234.986,248.1532,248.1788,237.873,258.9140,247.1607,247.6698,0.1240,,0.6860,0.6401,2.4802,,3.5235,,25.3276,,25.3219,,,,,,,,,,,12.6243,12.6211,0.1270,264.796,89.498,90.586,,,,,,,,,,,,
CalCOFI,2105SH,017,,2105_017d,07-May-2021 20:13:26,07-May-2021 12:13:26,32.08166,-120.64096,090.0 070.0,090.0,070.0,46.000,46.328,,12.5472,,12.5453,,12.5463,33.5226,,33.5238,33.5124,,33.5143,33.5191,5.3960,,5.7092,5.7552,5.4715,,5.7268,5.7474,5.7513,235.031,248.2002,248.2258,238.320,258.9626,247.6196,247.9227,0.1185,,0.6471,0.6128,2.4730,,3.5235,,25.3384,,25.3308,,,,,,,,,,,12.5411,12.5392,0.1297,263.788,89.358,90.598,,,,,,,,,,,,
CalCOFI,2105SH,017,,2105_017d,07-May-2021 20:13:28,07-May-2021 12:13:28,32.08166,-120.64096,090.0 070.0,090.0,070.0,47.000,47.336,,12.5049,,12.5006,,12.5028,33.5164,,33.5176,33.5103,,33.5122,33.5149,5.3597,,5.6713,5.7177,5.4436,,5.6979,5.7190,5.7184,233.448,246.5453,246.5732,237.102,257.2530,246.3691,246.4712,0.1155,,0.6258,0.5978,2.4564,,3.5235,,25.3417,,25.3379,,,,,,,,,,,12.4986,12.4944,0.1324,263.490,88.675,90.051,,,,,,,,,,,,
CalCOFI,2105SH,017,,2105_017d,07-May-2021 20:13:31,07-May-2021 12:13:31,32.08165,-120.64096,090.0 070.0,090.0,070.0,48.000,48.343,,12.4648,,12.4652,,12.4650,33.5134,,33.5146,33.5092,,33.5111,33.5129,5.3018,,5.6107,5.6580,5.3884,,5.6407,5.6628,5.6604,230.926,243.9088,243.9403,234.698,254.5292,243.9010,243.9207,0.1213,,0.6669,0.6267,2.4301,,3.5235,,25.3472,,25.3439,,,,,,,,,,,12.4584,12.4589,0.1350,262.993,87.642,89.072,,,,,,,,,,,,
CalCOFI,2105SH,017,,2105_017d,07-May-2021 20:13:32,07-May-2021 12:13:32,32.08164,-120.64098,090.0 070.0,090.0,070.0,49.000,49.350,,12.4264,,12.4261,,12.4263,33.5125,,33.5137,33.5074,,33.5093,33.5115,5.3184,,5.6281,5.6751,5.3784,,5.6303,5.6527,5.6639,231.645,244.6605,244.6909,234.261,255.3057,243.4523,244.0716,0.1082,,0.5739,0.5615,2.4207,,3.5235,,25.3539,,25.3500,,,,,,,,,,,12.4200,12.4196,0.1376,262.376,87.845,88.833,,,,,,,,,,,,
CalCOFI,2105SH,017,,2105_017d,07-May-2021 20:13:34,07-May-2021 12:13:34,32.08164,-120.64100,090.0 070.0,090.0,070.0,50.000,50.357,,12.3863,,12.3802,,12.3833,33.5112,,33.5124,33.5073,,33.5092,33.5108,5.2876,,5.5959,5.6434,5.3476,,5.5984,5.6213,5.6324,230.304,243.2586,243.2909,232.918,253.8575,242.0735,242.6822,0.1275,,0.7107,0.6576,2.4082,,3.5235,,25.3607,,25.3588,,,,,,,,,,,12.3797,12.3736,0.1403,261.757,87.263,88.240,,,,,,,,,,,,
CalCOFI,2105SH,017,,2105_017d,07-May-2021 20:13:36,07-May-2021 12:13:36,32.08164,-120.64100,090.0 070.0,090.0,070.0,51.000,51.365,,12.3178,,12.3011,,12.3095,33.5141,,33.5153,33.5084,,33.5103,33.5128,5.2335,,5.5393,5.5876,5.2936,,5.5425,5.5664,5.5770,227.945,240.7925,240.8281,230.563,251.3097,239.6556,240.2419,0.0983,,0.5030,0.5123,2.3882,,3.5235,,25.3760,,25.3749,,,,,,,,,,,12.3111,12.2944,0.1429,260.317,86.249,87.206,,,,,,,,,,,,
CalCOFI,2105SH,017,,2105_017d,07-May-2021 20:13:37,07-May-2021 12:13:37,32.08164,-120.64100,090.0 070.0,090.0,070.0,52.000,52.372,,12.2316,,12.2290,,12.2303,33.5134,,33.5146,33.5081,,33.5100,33.5123,5.1901,,5.4939,5.5428,5.2802,,5.5286,5.5528,5.5478,226.049,238.8104,238.8488,229.973,249.2620,239.0499,238.9494,0.0942,,0.4735,0.4919,2.3744,,3.5235,,25.3920,,25.3884,,,,,,,,,,,12.2248,12.2222,0.1455,258.813,85.379,86.853,52,12.011,,,235.41,0.480,0.295,8.72,0.159,0.38,0.87,6.31
CalCOFI,2105SH,017,,2105_017d,07-May-2021 20:13:40,07-May-2021 12:13:40,32.08162,-120.64100,090.0 070.0,090.0,070.0,53.000,53.379,,12.1688,,12.1659,,12.1674,33.5058,,33.5070,33.5010,,33.5029,33.5050,5.1173,,5.4178,5.4677,5.1671,,5.4115,5.4377,5.4527,222.877,235.4944,235.5372,225.046,245.8363,233.9914,234.7643,0.0937,,0.4699,0.4894,2.3499,,3.5235,,25.3981,,25.3949,,,,,,,,,,,12.1619,12.1590,0.1481,258.258,84.067,84.877,,,,,,,,,,,,
CalCOFI,2105SH,017,,2105_017d,07-May-2021 20:13:42,07-May-2021 12:13:42,32.08162,-120.64100,090.0 070.0,090.0,070.0,54.000,54.386,,12.0426,,12.0368,,12.0397,33.5068,,33.5080,33.4943,,33.4962,33.5021,4.8869,,5.1768,5.2301,4.8774,,5.1114,5.1430,5.1866,212.837,224.9986,225.0556,212.428,234.9931,221.0367,223.0462,0.0903,,0.4454,0.4724,2.3177,,3.5235,,25.4227,,25.4141,,,,,,,,,,,12.0356,12.0298,0.1507,255.926,80.071,79.900,,,,,,,,,,,,
CalCOFI,2105SH,017,,2105_017d,07-May-2021 20:13:43,07-May-2021 12:13:43,32.08162,-120.64100,090.0 070.0,090.0,070.0,55.000,55.394,,11.7634,,11.7609,,11.7622,33.5291,,33.5303,33.5136,,33.5155,33.5229,4.7624,,5.0466,5.1017,4.7948,,5.0259,5.0589,5.0803,207.400,219.3148,219.3795,208.815,229.1211,217.3273,218.3534,0.0814,,0.3809,0.4282,2.2971,,3.5235,,25.4924,,25.4808,,,,,,,,,,,11.7564,11.7539,0.1533,249.302,77.584,78.100,,,,,,,,,,,,